Location: Unspecified
(47.4992°N, 121.7766°W)
Time: 16:13:16
(UTC-07:00)

ISS - Pass Details

Date: 27 April 2024
Orbit: 410 x 414 km, 51.6° (Epoch: 18 May)

Event Time Altitude Azimuth Distance (km) Brightness Sun altitude
Exits shadow 03:23:23 27° 115° (ESE) 829 -2.2 -21.1°
Drops below altitude 10° 03:25:34 10° 80° (E) 1,479 -0.4 -20.9°
Sets 03:27:47 0° 69° (ENE) 2,342 1.0 -20.6°
